• Join FlightAware (Why Join?)
  • Login
  • US Flag 
07:23AM EDT


 

Airport Tracker/Info


-or-


 

Live Flight TrackerFlight Track Log ✈ SWA407 ✈ 18-Apr-2013 ✈ KMCO - KATL

Flight Track Log - Related Links

Times and Time Zones

All times are in EDT time to prevent confusion due to time zone crossing. See the SWA407 flight status page for this flight to view local times or setup timezone preferences in your user account.

Time Position Orientation Groundspeed Altitude Reporting Facility
EDT Latitude Longitude Course Direction KTS MPH feet Rate Location/Type
03:26PM 28.4167 -81.3000 180° South 152 175 600  Level Orlando TRACON
03:27PM 28.3667 -81.3000 180° South 230 265 3,100 2,940 Climbing Orlando TRACON
03:28PM 28.3500 -81.3833 257° West 272 313 6,800 3,540 Climbing Orlando TRACON
03:29PM 28.4000 -81.4333 319° Northwest 307 353 10,600 3,300 Climbing Orlando TRACON
03:31PM 28.6328 -81.5019 345° North 372 428 18,200 3,240 Climbing Jacksonville Center
03:32PM 28.7394 -81.5264 349° North 372 428 21,800 2,400 Climbing Jacksonville Center
03:33PM 28.8483 -81.5556 347° North 383 441 23,000 2,040 Climbing Jacksonville Center
03:34PM 28.9572 -81.5828 348° North 393 452 25,900 2,820 Climbing Jacksonville Center
03:35PM 29.0681 -81.6097 348° North 393 452 28,700 3,120 Climbing Jacksonville Center
03:36PM 29.1811 -81.6344 349° North 393 452 32,200 3,120 Climbing Jacksonville Center
03:37PM 29.2814 -81.6642 346° North 385 443 35,000 1,380 Climbing Jacksonville Center
03:38PM 29.3881 -81.6889 349° North 380 437 35,000  Level Jacksonville Center
03:39PM 29.4969 -81.7164 348° North 385 443 35,000  Level Jacksonville Center
03:40PM 29.6036 -81.7411 349° North 390 449 35,000  Level Jacksonville Center
03:41PM 29.7106 -81.7711 346° North 390 449 35,000  Level Jacksonville Center
03:42PM 29.8192 -81.7939 350° North 390 449 35,000  Level Jacksonville Center
03:43PM 29.9258 -81.8214 347° North 390 449 35,000  Level Jacksonville Center
03:44PM 30.0325 -81.8442 350° North 390 449 35,000  Level Jacksonville Center
03:45PM 30.1392 -81.8694 348° North 390 449 35,000  Level Jacksonville Center
03:46PM 30.2500 -81.8825 354° North 390 449 35,000  Level Jacksonville Center
03:48PM 30.4772 -81.8489 North 401 461 35,000  Level Jacksonville Center
03:49PM 30.5919 -81.8381 North 411 473 35,000  Level Jacksonville Center
03:50PM 30.7025 -81.8222 North 406 467 35,000  Level Jacksonville Center
03:51PM 30.8172 -81.8089 North 406 467 35,000  Level Jacksonville Center
03:52PM 30.9200 -81.8464 343° North 394 453 35,000  Level Jacksonville Center
03:53PM 31.0100 -81.9011 332° Northwest 402 463 35,000  Level Jacksonville Center
03:54PM 31.1108 -81.9608 333° Northwest 402 463 35,000  Level Jacksonville Center
03:55PM 31.2136 -82.0206 334° Northwest 402 463 35,000  Level Jacksonville Center
03:56PM 31.3119 -82.0803 333° Northwest 402 463 35,000  Level Jacksonville Center
03:57PM 31.4106 -82.1428 332° Northwest 402 463 35,000  Level Jacksonville Center
03:58PM 31.5111 -82.2028 333° Northwest 402 463 35,000  Level Jacksonville Center
03:59PM 31.6075 -82.2558 335° Northwest 395 455 35,000  Level Jacksonville Center
04:01PM 31.8064 -82.3722 334° Northwest 372 428 35,000  Level Atlanta Center
04:02PM 31.9031 -82.4317 332° Northwest 382 440 35,000  Level Atlanta Center
04:03PM 31.9997 -82.4911 332° Northwest 382 440 35,000  Level Atlanta Center
04:04PM 32.0967 -82.5483 333° Northwest 387 445 35,000 -60 Level Atlanta Center
04:05PM 32.1933 -82.6081 332° Northwest 392 451 34,900 -600 Descending Atlanta Center
04:06PM 32.2919 -82.6653 334° Northwest 392 451 33,900 -960 Descending Atlanta Center
04:07PM 32.3928 -82.7278 332° Northwest 393 452 33,000 -960 Descending Atlanta Center
04:08PM 32.4936 -82.7903 332° Northwest 393 452 32,000 -780 Descending Atlanta Center
04:09PM 32.5736 -82.8508 327° Northwest 393 452 31,500 -900 Descending Atlanta Center
04:10PM 32.6542 -82.9656 310° West 398 458 30,200 -1,200 Descending Atlanta Center
04:11PM 32.7239 -83.0686 309° West 403 464 29,200 -900 Descending Atlanta Center
04:12PM 32.7786 -83.1519 308° West 403 464 28,400 -1,080 Descending Atlanta Center
04:13PM 32.8608 -83.2772 308° West 398 458 27,100 -1,740 Descending Atlanta Center
04:14PM 32.9283 -83.3731 310° West 398 458 25,000 -1,980 Descending Atlanta Center
04:15PM 32.9956 -83.4792 307° West 393 452 23,200 -2,460 Descending Atlanta Center
04:17PM 33.1236 -83.6742 308° West 388 447 17,700 -2,820 Descending Atlanta Center
04:18PM 33.1908 -83.7683 310° West 382 440 14,900 -1,860 Descending Atlanta Center
04:19PM 33.2597 -83.8747 308° West 382 440 14,000 -660 Descending Atlanta Center
04:20PM 33.3142 -83.9592 308° West 352 405 13,600 -840 Descending Atlanta Center
04:21PM 33.3683 -84.0389 309° West 317 365 12,400 -840 Descending Atlanta Center
04:22PM 33.4186 -84.1158 308° West 303 349 12,000 -240 Descending Atlanta Center
04:23PM 33.4622 -84.1833 308° West 274 315 12,000  Level Atlanta Center
04:24PM 33.5061 -84.2506 308° West 262 302 12,000 -360 Level Atlanta Center
04:25PM 33.5414 -84.3231 300° West 256 295 11,300 -960 Descending Atlanta Center
04:26PM 33.5433 -84.4028 272° West 241 277 10,100 -1,200 Descending Atlanta Center
04:27PM 33.5431 -84.4700 270° West 236 272 8,900 -1,740 Descending Atlanta Center
04:28PM 33.5500 -84.5667 275° West 233 268 6,400 -1,920 Descending Atlanta TRACON
04:29PM 33.5667 -84.6333 287° West 247 284 4,900 -1,440 Descending Atlanta TRACON
04:30PM 33.6167 -84.6000 29° Northeast 204 235 3,600 -1,200 Descending Atlanta TRACON
04:31PM 33.6167 -84.5333 90° East 181 208 2,500 -960 Descending Atlanta TRACON
04:32PM 33.6167 -84.4833 90° East 137 158 1,700 -840 Descending Atlanta TRACON
04:34PM 33.6367 -84.4279 64° Northeast  Level Estimated
04:41PM 33.6367 -84.4279 64° Northeast  Level Estimated
04:42PM 33.6367 -84.4279 64° Northeast  Level Estimated